Superior, WI

2:26 PM CDT on August 27, 2016 (GMT -0500)
Bong

Weather History for KSUW - May, 2013

Change the Weather History Date:

Thursday, May 23, 2013

  Actual Average Record
Temperature  
Mean Temperature 41 °F -  
Max Temperature 49 °F 61 °F 91 °F (1964)
Min Temperature 34 °F 41 °F 25 °F (1958)
Degree Days  
Heating Degree Days 24    
Moisture  
Dew Point 32 °F    
Average Humidity 70    
Maximum Humidity 93    
Minimum Humidity 44    
Precipitation  
Precipitation 0.00 in - - ()
Sea Level Pressure  
Sea Level Pressure 30.29 in    
Wind  
Wind Speed 7 mph (ENE)    
Max Wind Speed 16 mph    
Max Gust Speed 21 mph    
Visibility 10 miles    
Events      
Averages and records for this station are not official NWS values.
T = Trace of Precipitation, MM = Missing Value Source: NWS Daily Summary

Daily Weather History Graph

Daily Weather History Graph

Search for Another Location

Airport or City:

Trip Planner

Search our weather history database for the weather conditions in past years. The results will help you decide how hot, cold, wet, or windy it might be!

Date:

Astronomy

May. 23, 2013 Rise Set
Actual Time 5:25 AM CDT 8:45 PM CDT
Civil Twilight 4:48 AM CDT 9:22 PM CDT
Nautical Twilight 3:59 AM CDT 10:11 PM CDT
Astronomical Twilight 2:58 AM CDT 11:13 PM CDT
Moon 7:14 PM CDT (5/23) 4:17 AM CDT (5/23)
Length of Visible Light 16h 34m
Length of Day
15h 20m
Waxing Gibbous, 97% of the Moon is Illuminated
May 23
Waxing Gibbous
May 24
Full
May 31
Last Quarter
Jun 8
New
Jun 16
First Quarter

Hourly Weather History & Observations

Time (CDT) Temp. Windchill Dew Point Humidity Pressure Visibility Wind Dir Wind Speed Gust Speed Precip Events Conditions
12:15 AM 43.9 °F 39.3 °F 38.1 °F 80% 30.10 in 10.0 mi NE 8.1 mph - N/A   Overcast
12:35 AM 42.4 °F 37.5 °F 37.4 °F 82% 30.11 in 10.0 mi NE 8.1 mph - N/A   Mostly Cloudy
12:55 AM 41.9 °F 37.5 °F 36.9 °F 82% 30.12 in 10.0 mi ENE 6.9 mph - N/A   Scattered Clouds
1:15 AM 40.8 °F 36.2 °F 36.5 °F 85% 30.12 in 10.0 mi ENE 6.9 mph - N/A   Clear
1:35 AM 40.3 °F 38.2 °F 36.5 °F 86% 30.13 in 10.0 mi ENE 3.5 mph - N/A   Scattered Clouds
1:55 AM 40.6 °F 36.0 °F 36.3 °F 85% 30.13 in 10.0 mi NE 6.9 mph - N/A   Scattered Clouds
2:15 AM 40.6 °F 35.4 °F 36.1 °F 84% 30.14 in 10.0 mi NE 8.1 mph - N/A   Scattered Clouds
2:35 AM 40.3 °F 35.5 °F 35.8 °F 84% 30.15 in 10.0 mi NE 6.9 mph - N/A   Scattered Clouds
2:55 AM 39.6 °F 35.4 °F 35.6 °F 86% 30.16 in 10.0 mi NE 5.8 mph - N/A   Clear
3:15 AM 38.8 °F 36.5 °F 35.2 °F 87% 30.17 in 10.0 mi NE 3.5 mph - N/A   Clear
3:35 AM 38.7 °F 35.2 °F 35.2 °F 87% 30.18 in 10.0 mi NE 4.6 mph - N/A   Clear
3:55 AM 38.3 °F 35.9 °F 35.1 °F 88% 30.19 in 10.0 mi NE 3.5 mph - N/A   Clear
4:15 AM 38.1 °F 35.7 °F 34.9 °F 88% 30.19 in 10.0 mi NE 3.5 mph - N/A   Clear
4:35 AM 38.3 °F 35.9 °F 35.1 °F 88% 30.21 in 10.0 mi NE 3.5 mph - N/A   Clear
4:55 AM 38.5 °F 35.0 °F 34.9 °F 87% 30.22 in 10.0 mi NE 4.6 mph - N/A   Clear
5:15 AM 37.9 °F 35.5 °F 34.7 °F 88% 30.23 in 10.0 mi NNE 3.5 mph - N/A   Clear
5:35 AM 38.5 °F 33.4 °F 34.7 °F 86% 30.23 in 10.0 mi NE 6.9 mph - N/A   Clear
5:55 AM 38.7 °F 35.2 °F 34.2 °F 84% 30.24 in 10.0 mi NE 4.6 mph - N/A   Clear
6:15 AM 39.6 °F 35.4 °F 34.5 °F 82% 30.25 in 10.0 mi ENE 5.8 mph - N/A   Clear
6:35 AM 40.5 °F 35.8 °F 34.5 °F 79% 30.26 in 10.0 mi NE 6.9 mph - N/A   Clear
6:55 AM 41.0 °F 35.2 °F 34.5 °F 78% 30.26 in 10.0 mi NE 9.2 mph - N/A   Clear
7:15 AM 41.2 °F 35.5 °F 34.2 °F 76% 30.28 in 10.0 mi ENE 9.2 mph - N/A   Clear
7:35 AM 41.9 °F 35.9 °F 34.7 °F 76% 30.28 in 10.0 mi East 10.4 mph - N/A   Clear
7:55 AM 42.4 °F 37.0 °F 34.5 °F 74% 30.29 in 10.0 mi NE 9.2 mph - N/A   Clear
8:15 AM 43.0 °F 37.7 °F 33.1 °F 68% 30.29 in 10.0 mi NE 9.2 mph - N/A   Clear
8:35 AM 43.5 °F 37.9 °F 32.7 °F 66% 30.31 in 10.0 mi ENE 10.4 mph - N/A   Clear
8:55 AM 43.2 °F 37.0 °F 31.8 °F 64% 30.32 in 10.0 mi East 11.5 mph 17.3 mph N/A   Clear
9:15 AM 43.5 °F 36.1 °F 31.5 °F 63% 30.32 in 10.0 mi East 16.1 mph 20.7 mph N/A   Clear
9:35 AM 43.7 °F 37.3 °F 31.8 °F 63% 30.32 in 10.0 mi East 12.7 mph - N/A   Clear
9:55 AM 43.7 °F 36.9 °F 31.6 °F 63% 30.33 in 10.0 mi East 13.8 mph 19.6 mph N/A   Clear
10:15 AM 43.7 °F 36.9 °F 31.6 °F 63% 30.33 in 10.0 mi East 13.8 mph 19.6 mph N/A   Clear
10:35 AM 44.4 °F 37.9 °F 31.6 °F 61% 30.33 in 10.0 mi ESE 13.8 mph 17.3 mph N/A   Clear
10:55 AM 44.6 °F 38.4 °F 30.7 °F 58% 30.34 in 10.0 mi East 12.7 mph - N/A   Clear
11:15 AM 45.1 °F 40.3 °F 30.9 °F 58% 30.34 in 10.0 mi East 9.2 mph 16.1 mph N/A   Clear
11:35 AM 45.1 °F 39.9 °F 30.9 °F 58% 30.34 in 10.0 mi East 10.4 mph - N/A   Clear
11:55 AM 46.2 °F 41.7 °F 30.7 °F 55% 30.34 in 10.0 mi ESE 9.2 mph - N/A   Clear
12:15 PM 46.4 °F 42.4 °F 28.0 °F 49% 30.34 in 10.0 mi ENE 8.1 mph - N/A   Clear
12:35 PM 46.4 °F 42.4 °F 31.8 °F 57% 30.34 in 10.0 mi NNE 8.1 mph - N/A   Clear
12:55 PM 46.4 °F 42.4 °F 30.7 °F 54% 30.34 in 10.0 mi NE 8.1 mph - N/A   Clear
1:15 PM 48.6 °F - 28.8 °F 46% 30.34 in 10.0 mi East 9.2 mph - N/A   Clear
1:35 PM 47.5 °F - 27.3 °F 46% 30.34 in 10.0 mi NE 9.2 mph - N/A   Clear
1:55 PM 47.7 °F - 28.4 °F 47% 30.34 in 10.0 mi ENE 8.1 mph - N/A   Clear
2:15 PM 48.0 °F - 27.0 °F 44% 30.34 in 10.0 mi ENE 9.2 mph - N/A   Clear
2:35 PM 48.4 °F - 29.1 °F 47% 30.34 in 10.0 mi NE 8.1 mph - N/A   Clear
2:55 PM 47.7 °F - 29.5 °F 49% 30.34 in 10.0 mi NE 9.2 mph - N/A   Clear
3:15 PM 47.5 °F - 28.9 °F 49% 30.34 in 10.0 mi ENE 9.2 mph - N/A   Clear
3:35 PM 47.8 °F - 29.5 °F 49% 30.33 in 10.0 mi NE 9.2 mph - N/A   Clear
3:55 PM 47.5 °F - 29.5 °F 50% 30.33 in 10.0 mi ENE 8.1 mph - N/A   Clear
4:15 PM 48.9 °F - 30.9 °F 50% 30.33 in 10.0 mi NNE 9.2 mph - N/A   Clear
4:35 PM 47.7 °F - 30.0 °F 50% 30.33 in 10.0 mi ENE 9.2 mph - N/A   Clear
4:55 PM 47.7 °F - 31.5 °F 53% 30.32 in 10.0 mi ENE 6.9 mph - N/A   Clear
5:15 PM 46.6 °F - 30.9 °F 54% 30.32 in 10.0 mi NE 5.8 mph - N/A   Clear
5:35 PM 47.5 °F - 31.3 °F 53% 30.33 in 10.0 mi North 6.9 mph - N/A   Clear
5:55 PM 46.6 °F - 30.2 °F 53% 30.33 in 10.0 mi NE 6.9 mph - N/A   Clear
6:15 PM 46.8 °F - 30.2 °F 53% 30.33 in 10.0 mi ENE 6.9 mph - N/A   Clear
6:35 PM 46.9 °F - 30.4 °F 53% 30.32 in 10.0 mi ENE 4.6 mph - N/A   Clear
6:55 PM 46.4 °F 43.5 °F 30.6 °F 54% 30.33 in 10.0 mi ENE 5.8 mph - N/A   Clear
7:15 PM 45.5 °F 42.5 °F 31.1 °F 57% 30.32 in 10.0 mi NE 5.8 mph - N/A   Clear
7:35 PM 43.9 °F 39.9 °F 31.5 °F 62% 30.33 in 10.0 mi NE 6.9 mph - N/A   Clear
7:55 PM 42.1 °F 37.1 °F 32.5 °F 69% 30.33 in 10.0 mi NE 8.1 mph - N/A   Clear
8:15 PM 40.5 °F 36.5 °F 32.2 °F 72% 30.34 in 10.0 mi NE 5.8 mph - N/A   Clear
8:35 PM 39.2 °F 35.9 °F 32.2 °F 76% 30.33 in 10.0 mi NE 4.6 mph - N/A   Clear
8:55 PM 37.4 °F 34.9 °F 32.4 °F 82% 30.34 in 10.0 mi NE 3.5 mph - N/A   Clear
9:15 PM 36.9 °F - 32.0 °F 83% 30.34 in 10.0 mi Calm Calm - N/A   Clear
9:35 PM 35.1 °F - 32.0 °F 89% 30.35 in 10.0 mi Calm Calm - N/A   Clear
9:55 PM 35.2 °F 32.4 °F 32.0 °F 88% 30.36 in 10.0 mi NNE 3.5 mph - N/A   Clear
10:15 PM 35.4 °F - 32.0 °F 87% 30.35 in 10.0 mi Calm Calm - N/A   Clear
10:35 PM 34.3 °F 30.2 °F 31.6 °F 90% 30.36 in 10.0 mi North 4.6 mph - N/A   Clear
10:55 PM 34.9 °F - 32.0 °F 89% 30.37 in 10.0 mi Calm Calm - N/A   Clear
11:15 PM 34.0 °F - 32.0 °F 92% 30.37 in 10.0 mi Calm Calm - N/A   Clear
11:35 PM 34.0 °F - 32.2 °F 93% 30.38 in 10.0 mi Calm Calm - N/A   Clear
11:55 PM 34.2 °F 31.2 °F 32.0 °F 92% 30.38 in 10.0 mi East 3.5 mph - N/A   Clear